Hourly Data Report for December 26, 2006

TORONTO CITY
ONTARIO

43°40'00.000" N
79°24'00.000" W
112.50 m
6158355
71508
XTO

Download Data

Hourly Data (December 2006)
Hourly Data Report for December 26, 2006
TIME
LST
Temp Definition
°C
Dew Point Definition
°C
Rel Hum Definition
%
Precip. Amount Definition
mm

Wind Dir Definition
10's deg

Wind Spd Definition
km/h
Visibility Definition
km
Stn Press Definition
kPa
Hmdx Definition


Wind Chill Definition


Weather Definition


00:00 3.7 2.7 93   LegendMM LegendMM   99.05     LegendNANA
01:00 3.5 2.8 95   LegendMM LegendMM   98.89     LegendNANA
02:00 3.5 2.8 95   LegendMM LegendMM   98.79     LegendNANA
03:00 3.2 2.7 97   LegendMM LegendMM   98.78     LegendNANA
04:00 2.7 2.3 97   LegendMM LegendMM   98.58     LegendNANA
05:00 2.7 2.3 97   LegendMM LegendMM   98.60     LegendNANA
06:00 3.0 2.3 95   LegendMM LegendMM   98.58     LegendNANA
07:00 2.7 1.8 94   LegendMM LegendMM   98.56     LegendNANA
08:00 2.7 1.6 92   LegendMM LegendMM   98.61     LegendNANA
09:00 3.0 1.7 91   LegendMM LegendMM   98.64     LegendNANA
10:00 3.2 1.9 91   LegendMM LegendMM   98.69     LegendNANA
11:00 3.8 1.9 87   LegendMM LegendMM   98.72     LegendNANA
12:00 4.3 1.8 84   LegendMM LegendMM   98.76     LegendNANA
13:00 4.2 1.3 81   LegendMM LegendMM   98.78     LegendNANA
14:00 3.9 1.2 83   LegendMM LegendMM   98.86     LegendNANA
15:00 3.4 0.6 82   LegendMM LegendMM   98.94     LegendNANA
16:00 2.5 -0.5 81   LegendMM LegendMM   99.07     LegendNANA
17:00 2.1 -0.7 82   LegendMM LegendMM   99.19     LegendNANA
18:00 1.4 -1.4 82   LegendMM LegendMM   99.25     LegendNANA
19:00 1.0 -2.0 80   LegendMM LegendMM   99.29     LegendNANA
20:00 0.8 -2.3 80   LegendMM LegendMM   99.34     LegendNANA
21:00 0.6 -2.3 81   LegendMM LegendMM   99.39     LegendNANA
22:00 0.3 -2.7 80   LegendMM LegendMM   99.46     LegendNANA
23:00 0.1 -2.9 80   LegendMM LegendMM   99.50     LegendNANA

Notes on Data Quality.

Legend

  • E = Estimated
  • M = Missing
  • NA = Not Available*
  • [empty] = Indicates an unobserved value
Date modified: